WMT7VD LATI-LIPE

Flight info

Callsign WMT7VD
Flight time N/A
Altitude 32000
Route DIRES DCT EBELA DCT KOFER DCT RILIM DCT XAMIT DCT UTAME DCT ANC DCT LIKNO DCT PIDEP DCT BAGNO DCT PELEG
Aircraft A21N/M-SDE2E3FGHIRWXY/LB1

Departure

Time 2026-05-07 19:26
Airport Tirana International Airport Mother Teresa (LATI)

Arrival

Time N/A
Airport Bologna Guglielmo Marconi Airport (LIPE)
Time Latitude Longitude Altitude Speed Heading
2026-05-07 18:48 41.42066 19.71500 127 ft 0 kts 264°
2026-05-07 19:17 41.42067 19.71504 122 ft 3 kts 264°
2026-05-07 19:17 41.42065 19.71537 124 ft 4 kts 291°
2026-05-07 19:17 41.42051 19.71563 122 ft 5 kts 334°
2026-05-07 19:18 41.42039 19.71569 122 ft 1 kts 354°
2026-05-07 19:21 41.42040 19.71569 122 ft 1 kts 354°
2026-05-07 19:21 41.42059 19.71566 122 ft 5 kts 354°
2026-05-07 19:21 41.42102 19.71560 134 ft 8 kts 354°
2026-05-07 19:21 41.42169 19.71551 133 ft 12 kts 354°
2026-05-07 19:22 41.42261 19.71538 137 ft 15 kts 354°
2026-05-07 19:22 41.42369 19.71523 132 ft 16 kts 354°
2026-05-07 19:22 41.42484 19.71509 130 ft 17 kts 357°
2026-05-07 19:22 41.42597 19.71497 135 ft 13 kts 354°
2026-05-07 19:23 41.42670 19.71541 136 ft 13 kts 76°
2026-05-07 19:23 41.42682 19.71666 133 ft 14 kts 84°
2026-05-07 19:23 41.42693 19.71801 138 ft 13 kts 85°
2026-05-07 19:23 41.42685 19.71890 133 ft 9 kts 127°
2026-05-07 19:24 41.42657 19.71902 134 ft 3 kts 178°
2026-05-07 19:24 41.42652 19.71902 134 ft 0 kts 178°
2026-05-07 19:25 41.42646 19.71902 135 ft 12 kts 178°
2026-05-07 19:25 41.42302 19.71949 125 ft 87 kts 174°
2026-05-07 19:25 41.41459 19.72060 133 ft 155 kts 174°
2026-05-07 19:25 41.40296 19.72218 542 ft 168 kts 173°
2026-05-07 19:26 41.39157 19.72377 1220 ft 167 kts 174°
2026-05-07 19:26 41.37943 19.72520 1648 ft 183 kts 174°
2026-05-07 19:26 41.36596 19.72691 2055 ft 202 kts 174°
2026-05-07 19:26 41.35170 19.72879 2586 ft 214 kts 173°
2026-05-07 19:27 41.33623 19.73086 3019 ft 234 kts 173°
2026-05-07 19:27 41.31935 19.73309 3487 ft 253 kts 173°
2026-05-07 19:27 41.30142 19.73544 4195 ft 261 kts 174°
2026-05-07 19:27 41.28335 19.73780 5052 ft 262 kts 174°
2026-05-07 19:28 41.26518 19.74019 5931 ft 262 kts 175°
2026-05-07 19:28 41.24713 19.73861 6736 ft 262 kts 195°
2026-05-07 19:28 41.23019 19.73008 7455 ft 267 kts 206°
2026-05-07 19:28 41.21505 19.71562 8169 ft 271 kts 225°
2026-05-07 19:29 41.20510 19.69432 8917 ft 277 kts 248°
2026-05-07 19:29 41.20218 19.66886 9651 ft 284 kts 271°
2026-05-07 19:29 41.20721 19.64317 10249 ft 297 kts 294°
2026-05-07 19:29 41.22010 19.62064 10558 ft 319 kts 311°
2026-05-07 19:30 41.23659 19.59969 10828 ft 337 kts 314°
2026-05-07 19:30 41.25411 19.57766 11080 ft 354 kts 313°
2026-05-07 19:30 41.27220 19.55427 11320 ft 371 kts 312°
2026-05-07 19:30 41.29096 19.52955 11544 ft 386 kts 312°
2026-05-07 19:31 41.31027 19.50381 11774 ft 400 kts 312°
2026-05-07 19:31 41.33009 19.47727 12142 ft 406 kts 312°
2026-05-07 19:31 41.35008 19.45044 12633 ft 409 kts 311°
2026-05-07 19:31 41.37013 19.42348 13155 ft 410 kts 311°
2026-05-07 19:32 41.39029 19.39635 13690 ft 412 kts 311°
2026-05-07 19:32 41.41047 19.36916 14154 ft 415 kts 311°
2026-05-07 19:32 41.43083 19.34172 14588 ft 417 kts 311°
2026-05-07 19:32 41.45126 19.31411 15068 ft 419 kts 311°
2026-05-07 19:33 41.47176 19.28639 15609 ft 421 kts 311°
2026-05-07 19:33 41.49243 19.25839 16120 ft 424 kts 311°
2026-05-07 19:33 41.51316 19.23030 16641 ft 426 kts 312°
2026-05-07 19:33 41.53378 19.20234 17112 ft 429 kts 312°
2026-05-07 19:34 41.55473 19.17388 17587 ft 431 kts 312°
2026-05-07 19:34 41.57580 19.14526 18075 ft 434 kts 312°
2026-05-07 19:34 41.59698 19.11644 18508 ft 436 kts 312°
2026-05-07 19:34 41.61829 19.08742 18909 ft 438 kts 312°
2026-05-07 19:35 41.63968 19.05826 19296 ft 440 kts 312°
2026-05-07 19:35 41.66115 19.02897 19710 ft 442 kts 312°
2026-05-07 19:35 41.68278 18.99946 20113 ft 444 kts 312°
2026-05-07 19:35 41.70443 18.96989 20489 ft 446 kts 311°
2026-05-07 19:36 41.72616 18.94016 20873 ft 448 kts 311°
2026-05-07 19:36 41.74798 18.91027 21307 ft 450 kts 311°
2026-05-07 19:36 41.77000 18.88010 21761 ft 453 kts 311°
2026-05-07 19:36 41.79203 18.84985 22186 ft 455 kts 311°
2026-05-07 19:37 41.81423 18.81933 22589 ft 457 kts 311°
2026-05-07 19:37 41.83648 18.78874 22980 ft 459 kts 311°
2026-05-07 19:37 41.85849 18.75838 23343 ft 461 kts 311°
2026-05-07 19:37 41.88090 18.72746 23704 ft 463 kts 311°
2026-05-07 19:38 41.90340 18.69642 24021 ft 464 kts 311°
2026-05-07 19:38 41.92491 18.66421 24417 ft 460 kts 305°
2026-05-07 19:38 41.94222 18.62830 24845 ft 455 kts 297°
2026-05-07 19:38 41.95737 18.59117 25300 ft 452 kts 296°
2026-05-07 19:39 41.97214 18.55401 25721 ft 450 kts 296°
2026-05-07 19:39 41.98688 18.51720 26162 ft 447 kts 296°
2026-05-07 19:39 42.00169 18.48047 26609 ft 445 kts 296°
2026-05-07 19:39 42.01644 18.44405 27058 ft 442 kts 296°
2026-05-07 19:40 42.03112 18.40781 27478 ft 440 kts 295°
2026-05-07 19:40 42.04577 18.37161 27881 ft 439 kts 295°
2026-05-07 19:40 42.06035 18.33567 28300 ft 437 kts 295°
2026-05-07 19:40 42.07486 18.29984 28695 ft 435 kts 295°
2026-05-07 19:41 42.08928 18.26412 29085 ft 433 kts 295°
2026-05-07 19:41 42.10360 18.22857 29473 ft 431 kts 295°
2026-05-07 19:41 42.11783 18.19315 29866 ft 429 kts 295°
2026-05-07 19:41 42.13180 18.15829 30228 ft 427 kts 295°
2026-05-07 19:42 42.14605 18.12267 30556 ft 425 kts 295°
2026-05-07 19:42 42.15990 18.08814 30867 ft 423 kts 294°
2026-05-07 19:42 42.17379 18.05348 31185 ft 421 kts 294°
2026-05-07 19:42 42.18769 18.01884 31469 ft 419 kts 294°
2026-05-07 19:43 42.20154 17.98422 31769 ft 417 kts 294°
2026-05-07 19:43 42.21529 17.94975 32048 ft 415 kts 294°
2026-05-07 19:43 42.22894 17.91546 32331 ft 414 kts 294°
2026-05-07 19:43 42.24250 17.88138 32588 ft 412 kts 294°
2026-05-07 19:44 42.25605 17.84730 32835 ft 411 kts 294°
2026-05-07 19:44 42.26952 17.81336 33071 ft 410 kts 294°
2026-05-07 19:44 42.28294 17.77952 33302 ft 408 kts 294°
2026-05-07 19:44 42.29633 17.74571 33527 ft 407 kts 294°
2026-05-07 19:45 42.30968 17.71194 33739 ft 406 kts 294°
2026-05-07 19:45 42.32298 17.67826 33940 ft 405 kts 294°
2026-05-07 19:45 42.33622 17.64474 34090 ft 405 kts 294°
2026-05-07 19:45 42.34949 17.61109 34090 ft 405 kts 294°
2026-05-07 19:46 42.37594 17.54387 34063 ft 405 kts 294°
2026-05-07 19:46 42.40215 17.47712 34057 ft 405 kts 294°
2026-05-07 19:47 42.42857 17.40967 34058 ft 405 kts 294°
2026-05-07 19:47 42.45492 17.34221 34056 ft 405 kts 294°
2026-05-07 19:48 42.48130 17.27458 34055 ft 405 kts 294°
2026-05-07 19:48 42.50758 17.20701 34048 ft 405 kts 293°
2026-05-07 19:49 42.53387 17.13922 34046 ft 405 kts 293°
2026-05-07 19:49 42.56009 17.07152 34047 ft 406 kts 293°
2026-05-07 19:50 42.58631 17.00360 34052 ft 406 kts 293°
2026-05-07 19:50 42.61230 16.93614 34052 ft 406 kts 293°
2026-05-07 19:51 42.63843 16.86818 34051 ft 406 kts 293°
2026-05-07 19:51 42.66397 16.79961 34050 ft 405 kts 290°
2026-05-07 19:52 42.68739 16.72984 34045 ft 405 kts 290°
2026-05-07 19:52 42.71072 16.65999 34050 ft 405 kts 290°
2026-05-07 19:53 42.73387 16.59057 34049 ft 405 kts 290°
2026-05-07 19:53 42.75716 16.52060 34051 ft 406 kts 289°
2026-05-07 19:54 42.78040 16.45056 34053 ft 406 kts 289°
2026-05-07 19:54 42.79968 16.39234 34052 ft 406 kts 289°
2026-05-07 19:55 42.82287 16.32216 34046 ft 406 kts 289°
2026-05-07 19:55 42.84975 16.24059 34043 ft 406 kts 289°
2026-05-07 19:56 42.86910 16.18164 34042 ft 406 kts 289°
2026-05-07 19:56 42.89200 16.11176 34041 ft 406 kts 288°
2026-05-07 19:57 42.91500 16.04139 34043 ft 406 kts 288°
2026-05-07 19:57 42.93799 15.97095 34040 ft 406 kts 288°
2026-05-07 19:58 42.96090 15.90044 34040 ft 406 kts 288°
2026-05-07 19:58 42.98377 15.82989 34039 ft 406 kts 288°
2026-05-07 19:59 43.00661 15.75933 34044 ft 406 kts 288°
2026-05-07 19:59 43.02927 15.68909 34038 ft 406 kts 288°
2026-05-07 20:00 43.05200 15.61838 34039 ft 406 kts 288°
2026-05-07 20:00 43.07467 15.54778 34038 ft 406 kts 288°
2026-05-07 20:01 43.09727 15.47707 34034 ft 405 kts 288°
2026-05-07 20:01 43.11982 15.40634 34039 ft 405 kts 288°
2026-05-07 20:02 43.14235 15.33565 34036 ft 405 kts 287°
2026-05-07 20:02 43.16481 15.26492 34035 ft 404 kts 287°
2026-05-07 20:03 43.18719 15.19428 34027 ft 404 kts 287°
2026-05-07 20:03 43.20948 15.12375 34032 ft 403 kts 287°
2026-05-07 20:04 43.23169 15.05324 34030 ft 402 kts 287°
2026-05-07 20:04 43.25380 14.98279 34041 ft 402 kts 287°
2026-05-07 20:05 43.27570 14.91286 34034 ft 401 kts 287°
2026-05-07 20:05 43.29766 14.84245 34032 ft 401 kts 287°
2026-05-07 20:06 43.31951 14.77216 34032 ft 400 kts 287°
2026-05-07 20:06 43.34118 14.70175 34035 ft 399 kts 287°
2026-05-07 20:07 43.36278 14.63140 34038 ft 399 kts 287°
2026-05-07 20:07 43.38422 14.56125 34033 ft 398 kts 287°
2026-05-07 20:08 43.40563 14.49106 34035 ft 397 kts 287°
2026-05-07 20:08 43.42680 14.42137 34035 ft 397 kts 287°
2026-05-07 20:09 43.44806 14.35126 34031 ft 397 kts 287°
2026-05-07 20:10 43.47968 14.24597 34033 ft 395 kts 284°
2026-05-07 20:10 43.49245 14.17314 34031 ft 390 kts 276°
2026-05-07 20:11 43.50226 14.09974 34035 ft 390 kts 276°
2026-05-07 20:11 43.51225 14.02614 34030 ft 390 kts 276°
2026-05-07 20:12 43.52225 13.95254 34033 ft 391 kts 277°
2026-05-07 20:12 43.53223 13.87867 34035 ft 392 kts 277°
2026-05-07 20:13 43.54215 13.80499 34027 ft 392 kts 276°
2026-05-07 20:13 43.55204 13.73100 34027 ft 392 kts 277°
2026-05-07 20:14 43.56852 13.65908 34028 ft 400 kts 290°
2026-05-07 20:14 43.59326 13.59019 34028 ft 400 kts 291°
2026-05-07 20:15 43.61783 13.52127 34029 ft 400 kts 290°
2026-05-07 20:15 43.64220 13.45221 34032 ft 400 kts 290°
2026-05-07 20:16 43.66638 13.38346 34023 ft 399 kts 290°
2026-05-07 20:16 43.69059 13.31445 34025 ft 399 kts 290°
2026-05-07 20:17 43.71468 13.24553 34029 ft 398 kts 290°
2026-05-07 20:17 43.73874 13.17649 34023 ft 398 kts 290°
2026-05-07 20:18 43.75871 13.11911 34023 ft 398 kts 290°
2026-05-07 20:18 43.78673 13.03852 34024 ft 398 kts 290°
2026-05-07 20:19 43.81066 12.96941 34019 ft 398 kts 290°
2026-05-07 20:19 43.83454 12.90021 34020 ft 397 kts 290°
2026-05-07 20:19 43.84627 12.86633 33913 ft 382 kts 290°
2026-05-07 20:20 43.85758 12.83358 33595 ft 371 kts 290°
2026-05-07 20:20 43.86853 12.80176 33193 ft 363 kts 290°
2026-05-07 20:20 43.87926 12.77051 32753 ft 355 kts 290°
2026-05-07 20:20 43.88975 12.73989 32301 ft 349 kts 290°
2026-05-07 20:21 43.90011 12.70962 31848 ft 345 kts 290°
2026-05-07 20:21 43.91037 12.67963 31402 ft 341 kts 290°
2026-05-07 20:21 43.92006 12.65124 30985 ft 337 kts 290°
2026-05-07 20:21 43.93001 12.62199 30567 ft 333 kts 290°
2026-05-07 20:22 43.93986 12.59306 30157 ft 329 kts 290°
2026-05-07 20:22 43.94957 12.56456 29676 ft 326 kts 290°
2026-05-07 20:22 43.95920 12.53631 29209 ft 322 kts 290°
2026-05-07 20:22 43.96871 12.50838 28762 ft 318 kts 290°
2026-05-07 20:23 43.97829 12.48016 28411 ft 329 kts 291°
2026-05-07 20:23 43.98808 12.45129 28101 ft 332 kts 291°
2026-05-07 20:23 43.99791 12.42234 27697 ft 329 kts 291°
2026-05-07 20:23 44.00774 12.39336 26921 ft 333 kts 291°
2026-05-07 20:24 44.01757 12.36432 26440 ft 330 kts 291°
2026-05-07 20:24 44.02732 12.33548 26111 ft 329 kts 291°
2026-05-07 20:24 44.03702 12.30676 25762 ft 327 kts 291°
2026-05-07 20:24 44.04661 12.27832 25389 ft 323 kts 291°
2026-05-07 20:25 44.05598 12.25050 25012 ft 320 kts 291°
2026-05-07 20:25 44.06549 12.22223 24598 ft 318 kts 291°
2026-05-07 20:25 44.07470 12.19470 24194 ft 317 kts 291°
2026-05-07 20:25 44.08399 12.16696 23783 ft 316 kts 291°
2026-05-07 20:26 44.09322 12.13933 23348 ft 315 kts 291°
2026-05-07 20:26 44.10245 12.11174 22886 ft 313 kts 291°
2026-05-07 20:26 44.11154 12.08463 22475 ft 310 kts 292°
2026-05-07 20:26 44.12060 12.05749 22056 ft 308 kts 292°
2026-05-07 20:27 44.12959 12.03062 21643 ft 306 kts 292°
2026-05-07 20:27 44.13855 12.00384 21224 ft 304 kts 292°
2026-05-07 20:27 44.14741 11.97728 20822 ft 302 kts 292°
2026-05-07 20:27 44.15622 11.95091 20434 ft 299 kts 292°
2026-05-07 20:28 44.16493 11.92477 20065 ft 297 kts 292°
2026-05-07 20:28 44.17359 11.89877 19693 ft 295 kts 292°
2026-05-07 20:28 44.18222 11.87282 19318 ft 295 kts 292°
2026-05-07 20:28 44.19081 11.84697 18954 ft 295 kts 292°
2026-05-07 20:29 44.19942 11.82099 18601 ft 294 kts 293°
2026-05-07 20:29 44.20796 11.79517 18227 ft 294 kts 293°
2026-05-07 20:29 44.21651 11.76931 17827 ft 292 kts 293°
2026-05-07 20:29 44.22522 11.74369 17451 ft 292 kts 297°
2026-05-07 20:30 44.23714 11.72078 17088 ft 293 kts 310°
2026-05-07 20:30 44.25129 11.70038 16765 ft 292 kts 313°
2026-05-07 20:30 44.26567 11.68032 16444 ft 291 kts 313°
2026-05-07 20:30 44.27991 11.66038 16122 ft 290 kts 313°
2026-05-07 20:31 44.29409 11.64035 15803 ft 289 kts 313°
2026-05-07 20:31 44.30789 11.62015 15473 ft 287 kts 308°
2026-05-07 20:31 44.31845 11.59671 15142 ft 285 kts 295°
2026-05-07 20:31 44.32686 11.57173 14807 ft 283 kts 293°
2026-05-07 20:32 44.33504 11.54666 14473 ft 283 kts 294°